| time (UTC) | temp F | wind direction | speed knots | gust knots | rain 1hr in | rain 24hr in | rain mn in | humidity % | barometer mb |
| 20260503053037 | 54 | 94 | 0.9 | 1.7 | 0.00 | 0.10 | 0.10 | 92 | 1009.3 |
| 20260503051531 | 54 | 115 | 0.9 | 3.5 | 0.01 | 0.10 | 0.10 | 92 | 1009.3 |
| 20260503050029 | 54 | 130 | 2.6 | 4.3 | 0.04 | 0.10 | 0.10 | 92 | 1009.2 |
| 20260503044524 | 54 | 104 | 1.7 | 5.2 | 0.04 | 0.10 | 0.10 | 92 | 1009.2 |
| 20260503043023 | 54 | 103 | 2.6 | 5.2 | 0.04 | 0.10 | 0.10 | 92 | 1009.3 |
| 20260503041521 | 54 | 86 | 1.7 | 3.5 | 0.02 | 0.09 | 0.09 | 92 | 1009.4 |
| 20260503040020 | 54 | 32 | 0.0 | 1.7 | 0.00 | 0.06 | 0.06 | 92 | 1009.8 |
| 20260503034533 | 54 | 32 | 0.0 | 0.9 | 0.00 | 0.06 | 0.06 | 91 | 1010.0 |
| 20260503033016 | 54 | 32 | 0.0 | 0.9 | 0.00 | 0.06 | 0.06 | 91 | 1010.3 |
| 20260503031516 | 54 | 32 | 0.0 | 2.6 | 0.00 | 0.06 | 0.06 | 91 | 1010.3 |
| 20260503030015 | 54 | 286 | 1.7 | 2.6 | 0.00 | 0.06 | 0.06 | 91 | 1010.0 |
| 20260503024512 | 54 | 286 | 0.0 | 1.7 | 0.00 | 0.06 | 0.06 | 91 | 1010.2 |
| 20260503023011 | 54 | 286 | 0.0 | 0.0 | 0.00 | 0.06 | 0.06 | 91 | 1010.2 |
| 20260503021511 | 54 | 286 | 0.0 | 0.9 | 0.00 | 0.06 | 0.06 | 91 | 1010.2 |
| 20260503020011 | 54 | 286 | 0.9 | 1.7 | 0.00 | 0.06 | 0.06 | 91 | 1010.4 |
| 20260503014515 | 54 | 286 | 0.0 | 0.9 | 0.00 | 0.06 | 0.06 | 91 | 1010.5 |
| 20260503013010 | 54 | 286 | 0.0 | 0.9 | 0.00 | 0.06 | 0.06 | 91 | 1010.4 |
| 20260503011509 | 54 | 286 | 0.9 | 3.5 | 0.00 | 0.06 | 0.06 | 91 | 1010.4 |
| 20260503010009 | 55 | 63 | 0.0 | 1.7 | 0.00 | 0.06 | 0.06 | 91 | 1010.4 |
| 20260503004509 | 55 | 57 | 0.9 | 2.6 | 0.00 | 0.06 | 0.06 | 91 | 1010.2 |
| 20260503003006 | 54 | 49 | 0.0 | 2.6 | 0.02 | 0.06 | 0.06 | 91 | 1010.5 |
| 20260503001505 | 54 | 90 | 2.6 | 6.1 | 0.03 | 0.06 | 0.06 | 91 | 1010.6 |
| 20260503000003 | 54 | 88 | 4.3 | 8.7 | 0.06 | 0.06 | 0.06 | 90 | 1010.7 |
| 20260502234501 | 55 | 72 | 6.1 | 11.3 | 0.06 | 0.06 | 0.06 | 90 | 1011.1 |
| 20260502233102 | 55 | 97 | 6.1 | 10.4 | 0.05 | 0.05 | 0.05 | 90 | 1011.6 |
| 20260502231605 | 55 | 111 | 6.1 | 13.0 | 0.03 | 0.03 | 0.03 | 89 | 1012.2 |
| 20260502230053 | 56 | 117 | 9.6 | 12.2 | 0.01 | 0.01 | 0.01 | 89 | 1012.4 |
| 20260502224550 | 55 | 171 | 5.2 | 9.6 | 0.00 | 0.00 | 0.00 | 88 | 1013.0 |
| 20260502223049 | 55 | 225 | 6.1 | 13.9 | 0.00 | 0.00 | 0.00 | 88 | 1013.5 |
| 20260502221546 | 55 | 110 | 3.5 | 7.0 | 0.00 | 0.00 | 0.00 | 88 | 1012.1 |
| 20260502220045 | 55 | 78 | 3.5 | 7.0 | 0.00 | 0.00 | 0.00 | 88 | 1011.9 |
| 20260502214541 | 55 | 72 | 2.6 | 7.0 | 0.00 | 0.00 | 0.00 | 87 | 1012.1 |
| 20260502213040 | 54 | 86 | 1.7 | 7.0 | 0.00 | 0.00 | 0.00 | 87 | 1012.2 |
| 20260502211545 | 54 | 61 | 1.7 | 7.0 | 0.00 | 0.00 | 0.00 | 86 | 1012.5 |
| 20260502210036 | 54 | 69 | 1.7 | 4.3 | 0.00 | 0.00 | 0.00 | 85 | 1012.6 |
| 20260502204533 | 54 | 65 | 1.7 | 3.5 | 0.00 | 0.00 | 0.00 | 85 | 1012.8 |
| 20260502203033 | 55 | 82 | 0.9 | 2.6 | 0.00 | 0.00 | 0.00 | 84 | 1013.0 |
| 20260502201533 | 55 | 69 | 1.7 | 2.6 | 0.00 | 0.00 | 0.00 | 83 | 1013.1 |
| 20260502200032 | 55 | 66 | 1.7 | 2.6 | 0.00 | 0.00 | 0.00 | 83 | 1013.3 |
| 20260502194531 | 56 | 40 | 0.0 | 1.7 | 0.00 | 0.00 | 0.00 | 83 | 1013.3 |
| 20260502193029 | 57 | 343 | 0.9 | 3.5 | 0.00 | 0.00 | 0.00 | 82 | 1013.3 |
| 20260502191528 | 58 | 334 | 0.9 | 4.3 | 0.00 | 0.00 | 0.00 | 81 | 1013.4 |
| 20260502190032 | 59 | 348 | 0.0 | 3.5 | 0.00 | 0.00 | 0.00 | 78 | 1013.3 |
| 20260502184531 | 60 | 16 | 0.9 | 4.3 | 0.00 | 0.00 | 0.00 | 76 | 1013.4 |
| 20260502183026 | 61 | 3 | 0.9 | 4.3 | 0.00 | 0.00 | 0.00 | 74 | 1013.3 |
| 20260502181525 | 62 | 37 | 0.9 | 3.5 | 0.00 | 0.00 | 0.00 | 73 | 1013.4 |
| 20260502163018 | 68 | 284 | 6.1 | 9.6 | 0.00 | 0.00 | 0.00 | 50 | 1014.4 |
| 20260502161514 | 68 | 279 | 5.2 | 8.7 | 0.00 | 0.00 | 0.00 | 47 | 1014.4 |
| 20260502151508 | 69 | 309 | 7.8 | 12.2 | 0.00 | 0.00 | 0.00 | 49 | 1014.9 |
| 20260502123048 | 67 | 288 | 6.1 | 15.6 | 0.00 | 0.00 | 0.00 | 73 | 1016.0 |
| 20260502121601 | 67 | 247 | 10.4 | 15.6 | 0.00 | 0.00 | 0.00 | 74 | 1016.0 |
| 20260502114545 | 68 | 282 | 7.0 | 12.2 | 0.00 | 0.00 | 0.00 | 73 | 1016.1 |
| 20260502113044 | 67 | 235 | 4.3 | 11.3 | 0.00 | 0.00 | 0.00 | 75 | 1016.1 |
| 20260502111550 | 66 | 268 | 7.0 | 11.3 | 0.00 | 0.00 | 0.00 | 77 | 1016.4 |
| 20260502110048 | 66 | 276 | 6.1 | 13.9 | 0.00 | 0.00 | 0.00 | 77 | 1016.4 |
| 20260502104545 | 66 | 222 | 8.7 | 13.0 | 0.00 | 0.00 | 0.00 | 77 | 1016.3 |
| 20260502103050 | 67 | 242 | 7.0 | 10.4 | 0.00 | 0.00 | 0.00 | 77 | 1016.3 |
| 20260502101600 | 66 | 283 | 6.1 | 11.3 | 0.00 | 0.00 | 0.00 | 78 | 1016.4 |
| 20260502071518 | 57 | 218 | 2.6 | 5.2 | 0.00 | 0.00 | 0.00 | 79 | 1016.6 |
| 20260502070022 | 56 | 212 | 1.7 | 4.3 | 0.00 | 0.00 | 0.00 | 79 | 1016.7 |
| 20260502064527 | 56 | 210 | 2.6 | 5.2 | 0.00 | 0.00 | 0.00 | 77 | 1016.6 |
| 20260502063016 | 55 | 212 | 1.7 | 3.5 | 0.00 | 0.00 | 0.00 | 75 | 1016.6 |
| 20260502061515 | 58 | 267 | 1.7 | 5.2 | 0.00 | 0.00 | 0.00 | 70 | 1016.6 |
| 20260502060013 | 57 | 240 | 0.9 | 2.6 | 0.00 | 0.00 | 0.00 | 72 | 1016.5 |
| 20260502054509 | 53 | 211 | 0.9 | 2.6 | 0.00 | 0.00 | 0.00 | 77 | 1016.4 |